User: anonymous   Login
Location: Unspecified
(0.0000°N, 0.0000°E)
Time: 03:02:47
(UTC+00:00)
Language:

RS-7 - Orbit

View from above orbital plane
View from above orbital plane
View from above satellite
View from above satellite

Ground track
Ground track

The orbit data is extracted from the following two-line orbital elements,

1 13001U 81120E   22138.42994556  .00000122  00000-0  12482-2 0  9991
2 13001  82.9550 119.2090 0022885 207.9600 271.9265 12.08912140783308
Epoch (UTC): 18 May 2022 10:19:07
Eccentricity: 0.0022885
inclination: 82.9550°
perigee height: 1623 km
apogee height: 1659 km
right ascension of ascending node: 119.2090°
argument of perigee: 207.9600°
revolutions per day: 12.08912140
mean anomaly at epoch: 271.9265°
orbit number at epoch: 78330

The dashed part of the orbit path shows where the satellite is in the earth's shadow,  

DLR